{"data":{"norad_id":66702,"intl_designator":"2025-276AN","name":"IRIDE FM8","alt_names":[],"object_type":"PAYLOAD","status":"ACTIVE","operator":null,"country":"IT","launch_date":"2025-11-28","launch_site_code":"AFWTR","launch_vehicle":null,"mission":null,"orbit_class":"UNKNOWN","rcs_meters":null,"size_class":null,"mass_kg":null,"dimensions":null,"purposes":[],"wikipedia_slug":null,"has_3d_model":false,"image_url":null,"decayed_at":null,"tle_current":{"epoch":"2026-05-25T03:32:00.602016Z","epoch_age_seconds":63164,"freshness":"FRESH","line1":"1 66702U 25276AN  26145.14722919  .00007809  00000+0  36717-3 0  9996","line2":"2 66702  97.4197 219.0841 0005383 102.5719 257.6118 15.19841799 26922","mean_motion":15.19841799,"eccentricity":0.0005383,"inclination_deg":97.4197,"raan_deg":219.0841,"arg_perigee_deg":102.5719,"mean_anomaly_deg":257.6118,"bstar":0.00036717,"rev_number":2692,"period_min":94.746703304743,"perigee_km":502.61240732953,"apogee_km":510.02421191587,"semimajor_km":6884.4553096227,"source":"CELESTRAK","updated_at":"2026-05-25T13:38:06.416794Z"}}}